When you browse on this site, cookies collect data to enhance your experience and personalize the content and advertising you see.
Visit our Privacy Policy to learn more. By continuing to use the site, you agree to this use of cookies and data.
  • En España
  • Lista de países
  • Para 7 días
  • Temperatura del agua
  • Mapa Satelital
  • El tiempo en el mapa
  • Informadores
  • user-avatar
    Iniciar sesión

    Tiempo cada hora Belugino

    Hoy, 22 Marzo, Viernes

    Tiempo Temperatura Precipitaciones Viento Presión Humedad
    00:00 -2°C° 0 mm 2 mps 746 mmHg 94%
    01:00 -3°C° 0 mm 2 mps 746 mmHg 94%
    02:00 -3°C° 0 mm 2 mps 745 mmHg 93%
    03:00 -3°C° 0 mm 2 mps 745 mmHg 93%
    04:00 -3°C° 0 mm 2 mps 744 mmHg 93%
    05:00 -2°C° 0 mm 3 mps 743 mmHg 92%
    06:00 -3°C° 0 mm 4 mps 743 mmHg 92%
    07:00 -2°C° 0.2 mm 4 mps 742 mmHg 90%
    08:00 -1°C° 0.2 mm 5 mps 741 mmHg 89%
    09:00 -2°C° 0 mm 6 mps 739 mmHg 86%
    10:00 -1°C° 0.9 mm 6 mps 738 mmHg 88%
    11:00 -1°C° 0.9 mm 6 mps 737 mmHg 89%
    12:00 -1°C° 0.9 mm 6 mps 736 mmHg 90%
    13:00 -1°C° 0.8 mm 6 mps 736 mmHg 90%
    14:00 -1°C° 0.8 mm 6 mps 736 mmHg 90%
    15:00 -1°C° 0.8 mm 6 mps 736 mmHg 90%
    16:00 -1°C° 0.4 mm 7 mps 736 mmHg 88%
    17:00 -1°C° 0.4 mm 7 mps 737 mmHg 85%
    18:00 -2°C° 0.4 mm 7 mps 737 mmHg 83%
    19:00 -2°C° 0.2 mm 7 mps 737 mmHg 83%
    20:00 -3°C° 0.2 mm 7 mps 738 mmHg 84%
    21:00 -3°C° 0.2 mm 7 mps 738 mmHg 84%
    22:00 -3°C° 0.1 mm 7 mps 738 mmHg 85%
    23:00 -3°C° 0.1 mm 7 mps 739 mmHg 86%

    Mañana, 23 Marzo, Sábado

    Tiempo Temperatura Precipitaciones Viento Presión Humedad
    00:00 -3°C° 0.1 mm 7 mps 739 mmHg 86%
    01:00 -3°C° 0.2 mm 7 mps 739 mmHg 88%
    02:00 -3°C° 0.2 mm 7 mps 740 mmHg 89%
    03:00 -3°C° 0.2 mm 7 mps 740 mmHg 90%
    04:00 -3°C° 0.1 mm 6 mps 741 mmHg 90%
    05:00 -3°C° 0.1 mm 6 mps 742 mmHg 91%
    06:00 -2°C° 0.1 mm 5 mps 743 mmHg 91%
    07:00 -2°C° 0 mm 5 mps 744 mmHg 91%
    08:00 -2°C° 0 mm 5 mps 745 mmHg 90%
    09:00 -3°C° 0 mm 6 mps 746 mmHg 89%
    10:00 -2°C° 0 mm 5 mps 746 mmHg 89%
    11:00 -2°C° 0 mm 5 mps 747 mmHg 90%
    12:00 -1°C° 0 mm 5 mps 747 mmHg 90%
    13:00 -1°C° 0 mm 5 mps 747 mmHg 89%
    14:00 -1°C° 0 mm 4 mps 747 mmHg 88%
    15:00 -1°C° 0 mm 4 mps 747 mmHg 88%
    16:00 0°C° 0 mm 3 mps 747 mmHg 87%
    17:00 0°C° 0 mm 3 mps 747 mmHg 87%
    18:00 +1°C° 0 mm 2 mps 747 mmHg 86%
    19:00 -1°C° 0 mm 2 mps 748 mmHg 87%
    20:00 -1°C° 0 mm 2 mps 748 mmHg 87%
    21:00 +1°C° 0 mm 1 mps 748 mmHg 87%
    22:00 +1°C° 0 mm 1 mps 748 mmHg 87%
    23:00 +1°C° 0 mm 1 mps 747 mmHg 86%

    Pasado mañana, 24 Marzo, Domingo

    Tiempo Temperatura Precipitaciones Viento Presión Humedad
    00:00 -1°C° 0 mm 0 mps 747 mmHg 85%
    01:00 0°C° 0 mm 1 mps 747 mmHg 86%
    02:00 0°C° 0 mm 1 mps 746 mmHg 86%
    03:00 -2°C° 0 mm 2 mps 746 mmHg 86%
    04:00 -2°C° 0 mm 2 mps 745 mmHg 87%
    05:00 -4°C° 0 mm 3 mps 745 mmHg 88%
    06:00 -4°C° 0 mm 3 mps 744 mmHg 89%
    07:00 -2°C° 0 mm 3 mps 743 mmHg 88%
    08:00 -3°C° 0 mm 4 mps 743 mmHg 88%
    09:00 -2°C° 0 mm 5 mps 743 mmHg 88%
    10:00 -2°C° 0.2 mm 5 mps 742 mmHg 89%
    11:00 -1°C° 0.2 mm 5 mps 741 mmHg 90%
    12:00 -1°C° 0.2 mm 5 mps 741 mmHg 91%
    13:00 -1°C° 0.1 mm 5 mps 740 mmHg 92%
    14:00 -1°C° 0.1 mm 5 mps 740 mmHg 92%
    15:00 0°C° 0.1 mm 4 mps 739 mmHg 93%
    16:00 0°C° 0 mm 4 mps 739 mmHg 92%
    17:00 +1°C° 0 mm 3 mps 739 mmHg 91%
    18:00 +1°C° 0 mm 3 mps 739 mmHg 90%
    19:00 0°C° 0.1 mm 3 mps 739 mmHg 90%
    20:00 0°C° 0.1 mm 3 mps 739 mmHg 90%
    21:00 -1°C° 0.1 mm 3 mps 739 mmHg 89%
    22:00 -1°C° 0 mm 3 mps 739 mmHg 89%
    23:00 -2°C° 0 mm 3 mps 739 mmHg 88%

    25 Marzo, Lunes

    Tiempo Temperatura Precipitaciones Viento Presión Humedad
    00:00 -2°C° 0 mm 3 mps 739 mmHg 88%
    01:00 -4°C° 0 mm 3 mps 739 mmHg 88%
    02:00 -4°C° 0 mm 3 mps 739 mmHg 87%
    03:00 -4°C° 0 mm 3 mps 739 mmHg 87%
    04:00 -4°C° 0 mm 3 mps 739 mmHg 86%
    05:00 -4°C° 0 mm 3 mps 739 mmHg 85%
    06:00 -4°C° 0 mm 3 mps 739 mmHg 84%
    07:00 -2°C° 0 mm 3 mps 739 mmHg 82%
    08:00 -3°C° 0 mm 4 mps 739 mmHg 80%
    09:00 -2°C° 0 mm 4 mps 739 mmHg 78%
    10:00 -1°C° 0 mm 4 mps 739 mmHg 74%
    11:00 0°C° 0 mm 4 mps 739 mmHg 70%
    12:00 +1°C° 0 mm 4 mps 739 mmHg 66%
    13:00 +3°C° 0 mm 4 mps 738 mmHg 64%
    14:00 +3°C° 0 mm 4 mps 738 mmHg 62%
    15:00 +4°C° 0 mm 4 mps 738 mmHg 60%
    16:00 +3°C° 0 mm 3 mps 738 mmHg 65%
    17:00 +2°C° 0 mm 3 mps 738 mmHg 70%
    18:00 +2°C° 0 mm 2 mps 739 mmHg 74%
    19:00 +2°C° 0 mm 2 mps 739 mmHg 76%
    20:00 +1°C° 0 mm 2 mps 739 mmHg 77%
    21:00 -1°C° 0 mm 3 mps 739 mmHg 78%
    22:00 -1°C° 0 mm 3 mps 740 mmHg 78%
    23:00 -1°C° 0 mm 2 mps 740 mmHg 79%

    26 Marzo, Martes

    Tiempo Temperatura Precipitaciones Viento Presión Humedad
    00:00 -1°C° 0 mm 2 mps 740 mmHg 79%
    01:00 -1°C° 0 mm 2 mps 740 mmHg 80%
    02:00 -2°C° 0 mm 2 mps 740 mmHg 82%
    03:00 -2°C° 0 mm 2 mps 740 mmHg 83%
    04:00 -2°C° 0 mm 2 mps 740 mmHg 84%
    05:00 -2°C° 0 mm 2 mps 740 mmHg 84%
    06:00 -2°C° 0 mm 2 mps 740 mmHg 85%
    07:00 -1°C° 0 mm 2 mps 741 mmHg 82%
    08:00 -1°C° 0 mm 2 mps 741 mmHg 79%
    09:00 +1°C° 0 mm 2 mps 741 mmHg 76%
    10:00 +1°C° 0 mm 3 mps 741 mmHg 73%
    11:00 +2°C° 0 mm 3 mps 741 mmHg 69%
    12:00 +3°C° 0 mm 3 mps 742 mmHg 66%
    13:00 +1°C° 0.3 mm 4 mps 742 mmHg 71%
    14:00 0°C° 0.3 mm 5 mps 742 mmHg 76%
    15:00 -2°C° 0.3 mm 6 mps 741 mmHg 81%
    16:00 -1°C° 0.1 mm 5 mps 742 mmHg 78%
    17:00 -1°C° 0.1 mm 4 mps 742 mmHg 75%
    18:00 -2°C° 0.1 mm 4 mps 742 mmHg 72%
    19:00 -2°C° 0 mm 4 mps 743 mmHg 74%
    20:00 -2°C° 0 mm 3 mps 743 mmHg 75%
    21:00 -4°C° 0 mm 3 mps 744 mmHg 77%
    22:00 -4°C° 0 mm 3 mps 744 mmHg 77%
    23:00 -4°C° 0 mm 3 mps 744 mmHg 77%

    27 Marzo, Miércoles

    Tiempo Temperatura Precipitaciones Viento Presión Humedad
    00:00 -4°C° 0 mm 3 mps 745 mmHg 78%
    01:00 -4°C° 0 mm 3 mps 745 mmHg 77%
    02:00 -4°C° 0 mm 3 mps 745 mmHg 76%
    03:00 -4°C° 0 mm 3 mps 745 mmHg 75%
    04:00 -4°C° 0 mm 4 mps 745 mmHg 74%
    05:00 -4°C° 0 mm 4 mps 745 mmHg 72%
    06:00 -5°C° 0 mm 5 mps 745 mmHg 71%
    07:00 -4°C° 0 mm 5 mps 745 mmHg 67%
    08:00 -2°C° 0 mm 5 mps 745 mmHg 62%
    09:00 -2°C° 0 mm 6 mps 745 mmHg 58%
    10:00 -1°C° 0 mm 6 mps 745 mmHg 56%
    11:00 +1°C° 0 mm 6 mps 745 mmHg 53%
    12:00 +2°C° 0 mm 6 mps 745 mmHg 50%
    13:00 +2°C° 0 mm 6 mps 745 mmHg 52%
    14:00 +3°C° 0 mm 7 mps 745 mmHg 53%
    15:00 +3°C° 0 mm 7 mps 744 mmHg 54%
    16:00 +2°C° 0 mm 6 mps 744 mmHg 60%
    17:00 +2°C° 0 mm 5 mps 744 mmHg 65%
    18:00 +1°C° 0 mm 4 mps 744 mmHg 71%
    19:00 +1°C° 0 mm 5 mps 745 mmHg 75%
    20:00 0°C° 0 mm 5 mps 745 mmHg 79%
    21:00 -1°C° 0 mm 5 mps 745 mmHg 83%
    22:00 -1°C° 0 mm 5 mps 745 mmHg 84%
    23:00 -1°C° 0 mm 5 mps 745 mmHg 86%
    Mostrar más